Home > Time Zones > World Clock > Weather > Ghana > Accra > Past weeks

Flag for Ghana Weather past 2 weeks in Accra, Ghana

Now
77 °F

Clear.


Feels Like: 78 °F
Forecast: 79 / 87 °F
Wind: 5 mph from Southwest

Location: Accra Airport

Current Time: Apr 1, 2015 at 3:09:45 AM

Latest Report: Apr 1, 2015 at 1:00 AM


Visibility: 10 mi

Pressure: 29.86 "Hg

Humidity: 94%

Dew point: 75 °F

Location of AccraLocation

Historic Weather in Accra — Graph

°F

Accra temperature yesterday

Maximum temperature yesterday: 88 °F (at 10:00 AM)
Minimum temperature yesterday: 75 °F (at 8:00 PM)
Average temperature yesterday: 81 °F

Past Weeks' High & Low Weather Summary

 TemperatureHumidityPressure
High93 °F (Mar 19, 1:00 PM)100% (Mar 22, 1:00 AM)29.98 "Hg (Mar 22, 1:00 AM)
Low73 °F (Mar 18, 6:00 AM)53% (Mar 19, 1:00 PM)29.71 "Hg (Mar 18, 4:00 PM)
Average82 °F82%29.83 "Hg
* Reported Mar 17 1:00 AM — Apr 1 1:00 AM, Accra, Weather by CustomWeather, © 2015

Note: Actual official high and low records may vary slightly from our data, if they occured in-between our weather recording intervals... More about our weather records

Advertising

Accra weather history for previous 24 hours

 ConditionsComfort  
Time TempWeatherWind HumidityBarometerVisibility
1:00 AM
Wed, Apr 1
77 °FClear.5 mph94%29.86 "Hg10 mi
12:00 AM77 °FClear.3 mph94%29.89 "Hg10 mi
11:00 PM
Tue, Mar 31
77 °FPassing clouds.7 mph94%29.92 "HgN/A
10:00 PM75 °FClear.3 mph100%29.95 "Hg10 mi
9:00 PM75 °FLight rain. Passing clouds.6 mph94%29.92 "Hg5 mi
8:00 PM75 °FThunderstorms. Passing clouds.8 mph94%29.89 "Hg5 mi
6:01 PM77 °FRain. Low clouds.12 mph94%29.86 "Hg3 mi
5:00 PM81 °FMostly cloudy.8 mph84%29.83 "HgN/A
3:01 PM88 °FScattered clouds.14 mph66%29.80 "HgN/A
2:00 PM88 °FPassing clouds.15 mph66%29.80 "HgN/A
1:01 PM88 °FPassing clouds.16 mph66%29.83 "HgN/A
10:57 AM88 °FBroken clouds.9 mph66%29.89 "HgN/A
10:00 AM88 °FPassing clouds.8 mph66%29.92 "HgN/A
8:58 AM84 °FPassing clouds.10 mph74%29.89 "HgN/A
8:00 AM82 °FPassing clouds.10 mph79%29.89 "HgN/A
7:00 AM79 °FSunny.8 mph84%29.86 "Hg10 mi
6:00 AM77 °FSunny.7 mph89%29.83 "Hg10 mi
5:00 AM77 °FClear.7 mph89%29.83 "Hg10 mi
4:00 AM79 °FClear.6 mph89%29.83 "Hg10 mi
3:00 AM79 °FClear.3 mph84%29.83 "Hg10 mi
Weather by CustomWeather, © 2015

See weather overviewHow to use our weather pages